Hourly Data Report for October 07, 2018

CARBERRY CS
MANITOBA
Current Station Operator: ECCC - MSC

49°54'20.900" N
99°21'26.800" W
383.50 m
5010547
71170
WZE

Download Data

Hourly Data (October 2018)
Hourly Data Report for October 7, 2018
TIME
LST
Temp Definition
°C
Dew Point Definition
°C
Rel Hum Definition
%
Precip. Amount Definition
mm

Wind Dir Definition
10's deg

Wind Spd Definition
km/h
Visibility Definition
km
Stn Press Definition
kPa
Hmdx Definition


Wind Chill Definition


Weather Definition


00:00 0.0 -1.0 93 0.0 15 8   97.95   -3 LegendNANA
01:00 -0.2 -1.0 94 0.0 15 7   97.98   -3 LegendNANA
02:00 -1.2 -1.9 96 0.0 14 9   98.00   -4 LegendNANA
03:00 -0.7 -1.3 96 0.0 15 7   98.04   -3 LegendNANA
04:00 -0.3 -1.1 94 0.0 14 8   98.03   -3 LegendNANA
05:00 -1.1 -1.7 96 0.0 14 7   98.02   -4 LegendNANA
06:00 -1.5 -1.8 98 0.0 12 4   98.00   -3 LegendNANA
07:00 -1.4 -1.7 98 0.0 14 6   98.02   -4 LegendNANA
08:00 -0.7 -1.2 97 0.0 15 5   98.04   -2 LegendNANA
09:00 0.6 -0.4 93 0.0 16 8   98.06     LegendNANA
10:00 1.7 -0.6 85 0.0 16 14   98.08     LegendNANA
11:00 2.0 -1.3 79 0.0 16 17   98.11     LegendNANA
12:00 2.1 -1.4 78 0.0 16 12   98.06     LegendNANA
13:00 2.4 -1.7 74 0.0 20 8   97.99     LegendNANA
14:00 2.6 -1.6 73 0.0 15 7   97.95     LegendNANA
15:00 2.4 -2.0 73 0.0 15 5   97.92     LegendNANA
16:00 2.4 -1.4 76 0.0 14 13   97.93     LegendNANA
17:00 2.0 -1.2 79 0.0 13 10   97.92     LegendNANA
18:00 1.7 -1.3 81 0.0 12 5   97.92     LegendNANA
19:00 1.5 -1.1 83 0.0 11 4   97.91     LegendNANA
20:00 1.4 -0.7 86 0.0 11 4   97.89     LegendNANA
21:00 1.3 -0.4 88 0.0 10 5   97.85     LegendNANA
22:00 1.3 -0.5 87 0.0 10 4   97.85     LegendNANA
23:00 1.2 -0.4 89 0.0 11 6   97.82     LegendNANA

Notes on Data Quality.

Legend

  • E = Estimated
  • M = Missing
  • NA = Not Available*
  • [empty] = Indicates an unobserved value
Date modified: